Waarnemingen

Advertentie
Mijn weer
Chambery/Aix-Les-Bains, Frankrijk (7491): temperatuur & dauwpunt: 20.04.2018 11:00:00 - 26.04.2018 11:00:00 (CEST)Chambery/Aix-Les-Bains, Frankrijk (7491): temperatuur 5cm: 20.04.2018 11:00:00 - 26.04.2018 11:00:00 (CEST)Chambery/Aix-Les-Bains, Frankrijk (7491): temperatuur -20cm & temperatuur -100cm: 20.04.2018 11:00:00 - 26.04.2018 11:00:00 (CEST)Chambery/Aix-Les-Bains, Frankrijk (7491): windsnelheid & windstoten: 20.04.2018 11:00:00 - 26.04.2018 11:00:00 (CEST)Chambery/Aix-Les-Bains, Frankrijk (7491): windrichting: 20.04.2018 11:00:00 - 26.04.2018 11:00:00 (CEST)Chambery/Aix-Les-Bains, Frankrijk (7491): luchtdruk: 20.04.2018 11:00:00 - 26.04.2018 11:00:00 (CEST)Chambery/Aix-Les-Bains, Frankrijk (7491): zicht: 20.04.2018 11:00:00 - 26.04.2018 11:00:00 (CEST)Chambery/Aix-Les-Bains, Frankrijk (7491): Zonneschijnduur: 20.04.2018 11:00:00 - 26.04.2018 11:00:00 (CEST)Chambery/Aix-Les-Bains, Frankrijk (7491): neerslag: 20.04.2018 11:00:00 - 26.04.2018 11:00:00 (CEST)
Datum & Tijd tt [°C] td [°C] tt 5cm [°C] tt -20cm [°C] tt -100cm [°C] ff [km/u] ff [kn] fx [km/u] fx [kn] dd ppp [hPa] vv [km] sd [min] rr [mm]
26.04.2018 11:00:00 16,2 6,6 15,7 13,8 10,9 19 11 37 20 NNO 1019,7 10 9 0,0
26.04.2018 10:00:00 14,9 7,4 15,1 13,8 10,9 19 11 28 15 NNO 1020,0 9 18 0,0
26.04.2018 09:00:00 14,7 7,3 14,4 13,9 10,9 18 10 31 17 NO 1020,4 6 28 0,0
26.04.2018 08:00:00 15,0 6,8 13,5 13,9 10,9 14 8 31 17 N 1020,3 7 9 0,0
26.04.2018 07:00:00 14,8 5,8 13,7 13,9 10,9 14 8 34 18 N 1019,9 16 0 0,0
26.04.2018 06:00:00 15,1 7,4 13,7 14,0 10,9 8 4 21 11 O 1019,9 16 0 0,0
26.04.2018 05:00:00 15,5 7,3 14,3 14,0 10,9 7 4 19 10 O 1019,8 16 0 0,0
26.04.2018 04:00:00 16,0 7,7 14,5 14,1 10,9 8 4 28 15 OZO 1019,9 17 0 0,0
26.04.2018 03:00:00 16,1 7,8 14,5 14,1 10,9 11 6 23 12 NNW 1020,0 16 0 0,0
26.04.2018 02:00:00 16,3 8,5 15,2 14,1 10,9 4 2 19 10 NW 1019,9 16 0 0,0
26.04.2018 01:00:00 17,3 9,0 16,4 14,1 10,9 7 4 32 17 ONO 1019,3 16 0 0,0
26.04.2018 00:00:00 18,0 8,8 17,4 14,1 10,9 18 10 49 26 NO 1018,7 15 0 0,0
25.04.2018 23:00:00 18,8 10,9 17,9 14,1 10,8 18 10 37 20 ONO 1017,9 12 0 0,0
25.04.2018 22:00:00 19,7 12,2 17,6 14,0 10,8 21 11 37 20 NNO 1016,6 12 0 0,0
25.04.2018 21:00:00 20,4 12,9 17,7 14,0 10,8 6 3 29 15 ZZO 1014,9 11 9 0,0
25.04.2018 20:00:00 21,4 13,1 19,9 13,9 10,8 11 6 32 18 NO 1014,0 11 12 0,0
25.04.2018 19:00:00 24,9 10,4 21,7 13,8 10,8 8 4 26 14 WZW 1013,5 13 5 0,0
25.04.2018 18:00:00 25,2 10,6 23,4 13,7 10,8 14 8 24 13 ZZW 1013,5 13 14 0,0
25.04.2018 17:00:00 26,4 8,8 28,0 13,5 10,8 9 5 23 12 ZZW 1013,7 6 47 0,0
25.04.2018 16:00:00 25,9 11,3 31,2 13,4 10,8 9 5 21 11 N 1014,5 13 54 0,0
25.04.2018 15:00:00 25,3 12,5 30,2 13,2 10,8 16 9 23 12 N 1015,4 13 55 0,0
25.04.2018 14:00:00 25,2 12,1 30,9 13,2 10,8 13 7 21 12 NO 1015,8 15 60 0,0
25.04.2018 13:00:00 24,4 12,4 32,7 13,1 10,8 4 2 12 6 O 1016,6 13 60 0,0
25.04.2018 12:00:00 21,8 10,6 25,1 13,1 10,8 4 2 16 9 ONO 1017,7 4,7 60 0,0
25.04.2018 11:00:00 18,7 11,7 20,9 13,1 10,7 8 4 15 8 NNO 1018,3 8 60 0,0
25.04.2018 10:00:00 16,8 11,9 16,4 13,2 10,8 13 7 19 10 N 1018,2 10 60 0,0
25.04.2018 09:00:00 16,3 11,9 11,0 13,2 10,8 2 1 7 4 ZZO 1018,2 10 60 0,0
25.04.2018 08:00:00 11,7 10,6 7,4 13,3 10,8 5 3 8 4 Z 1018,9 7 19 0,0
25.04.2018 07:00:00 10,8 8,9 7,5 13,4 10,7 0 0 9 5 N 1018,6 11 0 0,0
25.04.2018 06:00:00 11,8 10,0 7,6 13,4 10,7 5 3 8 4 N 1017,8 11 0 0,0
25.04.2018 05:00:00 11,4 9,0 7,5 13,5 10,7 4 2 5 3 WNW 1017,6 13 0 0,0
25.04.2018 04:00:00 11,7 9,1 8,5 13,6 10,7 0 0 4 2 N 1017,4 13 0 0,0
25.04.2018 03:00:00 11,6 8,8 7,5 13,7 10,7 2 1 4 2 NO 1017,5 13 0 0,0
25.04.2018 02:00:00 11,2 8,2 7,4 13,8 10,7 3 1 6 3 ZZO 1017,6 13 0 0,0
25.04.2018 01:00:00 12,3 8,9 7,7 13,8 10,7 2 1 9 5 NO 1017,5 13 0 0,0
25.04.2018 00:00:00 12,6 8,3 8,1 13,9 10,7 4 2 10 5 ZZW 1017,5 14 0 0,0
24.04.2018 23:00:00 13,8 9,2 8,9 13,9 10,7 6 3 9 5 Z 1017,6 14 0 0,0
24.04.2018 22:00:00 16,1 9,5 10,7 13,9 10,7 5 3 11 6 ZW 1016,9 14 0 0,0
24.04.2018 21:00:00 17,5 10,4 12,5 13,8 10,7 8 5 12 7 OZO 1016,3 15 0 0,0
24.04.2018 20:00:00 21,2 10,1 15,7 13,7 10,7 3 1 9 5 W 1015,7 15 3 0,0
24.04.2018 19:00:00 23,9 12,5 21,6 13,6 10,6 4 2 11 6 N 1015,4 16 60 0,0
24.04.2018 18:00:00 24,6 10,8 24,6 13,5 10,6 6 4 16 8 N 1015,5 17 60 0,0
24.04.2018 17:00:00 24,7 10,2 26,8 13,3 10,6 8 4 18 10 NNO 1015,7 18 60 0,0
24.04.2018 16:00:00 24,6 8,1 30,0 13,2 10,6 8 4 18 10 NNO 1016,3 18 60 0,0
24.04.2018 15:00:00 24,2 9,4 29,7 13,1 10,6 11 6 22 12 NNO 1017,2 14 60 0,0
24.04.2018 14:00:00 22,2 12,2 30,6 13,0 10,6 9 5 16 9 NNO 1018,1 14 60 0,0
24.04.2018 13:00:00 20,5 11,1 29,0 12,9 10,6 10 5 16 9 N 1018,9 13 60 0,0
24.04.2018 12:00:00 19,8 13,0 25,2 12,9 10,6 8 4 12 7 N 1019,5 13 60 0,0
24.04.2018 11:00:00 18,8 11,1 19,7 12,9 10,6 3 2 9 5 ONO 1020,0 18 60 0,0
24.04.2018 10:00:00 16,9 10,7 15,4 13,0 10,6 3 2 10 5 NNO 1020,7 18 60 0,0
24.04.2018 09:00:00 14,0 10,4 9,6 13,1 10,6 4 2 8 5 N 1021,2 13 60 0,0
24.04.2018 08:00:00 10,6 10,1 5,8 13,2 10,5 0 0 6 3 N 1021,6 9 18 0,0
24.04.2018 07:00:00 9,4 8,6 5,4 13,3 10,6 4 2 6 3 W 1021,4 12 0 0,0
24.04.2018 06:00:00 8,6 7,4 5,8 13,3 10,5 5 3 7 4 Z 1021,2 10 0 0,0
24.04.2018 05:00:00 10,0 8,8 6,7 13,4 10,5 3 1 6 3 ZO 1021,0 13 0 0,0
24.04.2018 04:00:00 11,5 9,2 7,8 13,4 10,5 3 1 10 6 OZO 1020,9 16 0 0,0
24.04.2018 03:00:00 12,5 10,0 8,9 13,5 10,5 2 1 14 8 O 1020,5 15 0 0,0
24.04.2018 02:00:00 14,3 11,3 11,6 13,5 10,5 9 5 16 9 N 1020,5 16 0 0,0
24.04.2018 01:00:00 15,0 11,2 12,3 13,6 10,5 8 4 23 12 N 1020,6 17 0 0,0
24.04.2018 00:00:00 16,3 11,4 13,0 13,6 10,5 7 4 19 11 NNW 1020,5 18 0 0,0
23.04.2018 23:00:00 16,4 11,3 12,7 13,6 10,5 8 4 20 11 N 1020,1 19 0 0,0
23.04.2018 22:00:00 16,6 11,1 12,7 13,6 10,5 6 4 17 9 N 1019,7 19 0 0,0
23.04.2018 21:00:00 16,8 11,3 12,8 13,6 10,5 8 5 19 11 N 1019,0 16 8 0,0
23.04.2018 20:00:00 18,7 11,7 15,8 13,5 10,5 3 2 16 9 WZW 1018,3 18 2 0,0
23.04.2018 19:00:00 21,5 12,3 20,0 13,4 10,4 8 4 22 12 NNO 1017,9 18 44 0,0
23.04.2018 18:00:00 23,4 9,8 22,3 13,3 10,4 11 6 46 25 W 1018,0 16 40 0,0
23.04.2018 17:00:00 22,7 10,5 23,5 13,2 10,4 16 8 34 18 ZZW 1017,9 10 49 0,0
23.04.2018 16:00:00 23,8 10,1 28,0 13,2 10,4 22 12 36 20 ZZW 1017,5 9 60 0,0
23.04.2018 15:00:00 23,3 10,0 22,4 13,1 10,4 11 6 22 12 Z 1018,3 7 13 0,0
23.04.2018 14:00:00 22,8 12,1 22,4 13,0 10,4 6 3 15 8 NO 1018,4 18 9 0,0
23.04.2018 13:00:00 20,4 10,8 21,4 13,0 10,4 2 1 - - NW 1018,9 19 0 0,0
23.04.2018 12:00:00 19,2 10,5 21,3 13,0 10,4 - - - - - 1019,0 17 0 0,0
23.04.2018 11:00:00 20,3 8,6 18,0 13,0 10,4 - - - - - 1018,4 17 40 0,0
23.04.2018 10:00:00 18,1 8,6 16,0 13,1 10,4 10 5 16 9 ZW 1018,5 17 7 0,0
23.04.2018 09:00:00 16,7 9,1 13,9 13,2 10,4 6 3 14 7 ZZW 1018,7 18 6 0,0
23.04.2018 08:00:00 14,5 9,9 9,3 13,2 10,4 0 0 11 6 N 1018,5 16 47 0,0
23.04.2018 07:00:00 - - - - - - - - - - - - - -
23.04.2018 06:00:00 12,7 8,2 8,8 13,3 10,4 6 4 10 6 ZZO 1018,8 18 0 0,0
23.04.2018 05:00:00 14,4 8,3 10,3 13,4 10,4 3 1 10 6 OZO 1018,7 19 0 0,0
23.04.2018 04:00:00 16,8 7,2 9,4 13,4 10,3 7 4 20 11 ZZW 1018,4 20 0 0,0
23.04.2018 03:00:00 13,8 8,4 9,6 13,5 10,4 0 0 8 5 N 1018,8 20 0 0,0
23.04.2018 02:00:00 14,5 9,5 10,7 13,5 10,3 4 2 6 4 W 1018,6 20 0 0,0
23.04.2018 01:00:00 15,4 8,8 11,4 13,6 10,3 2 1 9 5 Z 1018,2 20 0 0,0
23.04.2018 00:00:00 16,7 8,4 12,0 13,5 10,3 4 2 9 5 W 1017,3 24 0 0,0
22.04.2018 23:00:00 18,2 8,5 12,3 13,6 10,3 6 3 8 5 WNW 1016,9 24 0 0,0
22.04.2018 22:00:00 18,5 8,5 12,4 13,6 10,3 3 2 9 5 W 1016,6 20 0 0,0
22.04.2018 21:00:00 20,6 7,9 14,2 13,5 10,3 2 1 17 9 NNO 1015,5 24 0 0,0
22.04.2018 20:00:00 23,2 9,2 16,8 13,4 10,3 5 3 10 6 ONO 1014,3 18 0 0,0
22.04.2018 19:00:00 26,3 11,2 22,1 13,3 10,3 4 2 10 5 WNW 1013,6 19 60 0,0
22.04.2018 18:00:00 25,7 12,9 24,9 13,1 10,2 8 4 11 6 N 1013,6 18 60 0,0
22.04.2018 17:00:00 26,4 10,5 27,9 13,0 10,2 7 4 13 7 NNW 1013,9 17 60 0,0
22.04.2018 16:00:00 26,3 11,6 31,4 12,8 10,2 7 4 13 7 N 1014,4 18 60 0,0
22.04.2018 15:00:00 24,7 12,3 32,5 12,7 10,2 9 5 16 9 N 1015,4 18 60 0,0
22.04.2018 14:00:00 23,3 9,7 29,4 12,6 10,2 8 4 12 6 N 1016,0 20 60 0,0
22.04.2018 13:00:00 21,2 10,4 27,7 12,5 10,2 8 4 13 7 N 1016,9 19 60 0,0
22.04.2018 12:00:00 20,0 9,8 23,9 12,5 10,1 7 4 10 5 N 1017,7 18 60 0,0
22.04.2018 11:00:00 18,3 9,6 20,1 12,5 10,2 6 4 15 8 N 1018,6 19 60 0,0
22.04.2018 10:00:00 18,0 8,5 16,4 12,6 10,1 5 3 9 5 N 1018,6 20 60 0,0
22.04.2018 09:00:00 16,6 8,8 9,8 12,7 10,2 0 0 5 3 N 1018,8 19 60 0,0
22.04.2018 08:00:00 12,0 8,5 6,3 12,8 10,2 0 0 5 3 N 1019,2 17 14 0,0
22.04.2018 07:00:00 10,7 7,0 6,1 12,8 10,1 0 0 4 2 N 1018,9 20 0 0,0
22.04.2018 06:00:00 10,3 6,6 6,5 12,9 10,1 4 2 6 3 ZZO 1018,6 23 0 0,0
22.04.2018 05:00:00 11,8 6,9 6,9 13,0 10,1 0 0 8 4 N 1018,5 19 0 0,0
22.04.2018 04:00:00 11,6 7,3 7,7 13,0 10,1 5 3 8 4 OZO 1018,6 20 0 0,0
22.04.2018 03:00:00 13,8 7,6 8,9 13,1 10,1 5 3 13 7 ZZO 1018,5 27 0 0,0
22.04.2018 02:00:00 16,7 8,4 10,1 13,2 10,1 7 4 13 7 ZZW 1018,5 30 0 0,0
22.04.2018 01:00:00 15,7 10,5 10,5 13,2 10,1 4 2 14 8 N 1018,5 27 0 0,0
22.04.2018 00:00:00 16,0 10,3 10,3 13,3 10,1 3 2 9 5 NW 1018,1 20 0 0,0
21.04.2018 23:00:00 15,7 9,1 10,9 13,3 10,1 3 2 8 5 Z 1017,8 20 0 0,0
21.04.2018 22:00:00 17,5 9,4 11,2 13,3 10,1 0 0 10 5 N 1017,3 29 0 0,0
21.04.2018 21:00:00 18,3 9,4 11,9 13,2 10,1 3 1 9 5 Z 1016,5 34 0 0,0
21.04.2018 20:00:00 20,5 10,9 14,5 13,1 10,1 0 0 5 3 N 1015,8 20 0 0,0
21.04.2018 19:00:00 24,6 8,9 20,8 13,0 10,0 5 3 10 6 NW 1015,3 20 60 0,0
21.04.2018 18:00:00 25,8 10,8 24,3 12,8 10,0 6 3 11 6 N 1015,6 20 60 0,0
21.04.2018 17:00:00 25,9 9,7 27,1 12,6 10,0 7 4 10 5 N 1016,1 19 60 0,0
21.04.2018 16:00:00 25,6 9,4 29,7 12,5 10,0 7 4 11 6 N 1016,9 19 60 0,0
21.04.2018 15:00:00 24,1 10,7 30,1 12,4 10,0 6 4 12 6 N 1017,9 19 60 0,0
21.04.2018 14:00:00 22,6 10,4 30,4 12,2 10,0 8 5 12 6 N 1018,9 19 60 0,0
21.04.2018 13:00:00 22,9 9,7 28,8 12,2 10,0 7 4 11 6 N 1019,7 17 60 0,0
21.04.2018 12:00:00 20,7 9,6 25,5 12,2 10,0 6 3 12 6 N 1020,8 18 60 0,0
21.04.2018 11:00:00 19,4 10,7 20,4 12,2 10,0 7 4 11 6 N 1021,5 18 60 0,0
21.04.2018 10:00:00 17,8 8,6 15,2 12,3 10,0 4 2 8 4 ZZO 1021,9 18 60 0,0
21.04.2018 09:00:00 15,1 9,5 8,5 12,4 10,0 0 0 5 3 N 1022,5 17 60 0,0
21.04.2018 08:00:00 9,3 8,2 5,2 12,5 10,0 5 3 6 4 ZZO 1023,2 15 12 0,0
21.04.2018 07:00:00 8,4 7,2 5,2 12,5 10,0 0 0 6 3 N 1022,7 17 0 0,0
21.04.2018 06:00:00 9,2 7,5 5,5 12,6 9,9 0 0 7 4 N 1022,4 16 0 0,0
21.04.2018 05:00:00 10,2 8,6 6,3 12,7 9,9 0 0 5 3 N 1022,3 18 0 0,0
21.04.2018 04:00:00 10,4 8,2 6,8 12,8 9,9 3 2 5 3 Z 1022,3 19 0 0,0
21.04.2018 03:00:00 11,2 9,3 7,4 12,8 9,9 0 0 6 3 N 1022,1 19 0 0,0
21.04.2018 02:00:00 12,0 9,4 8,4 12,9 9,9 0 0 6 4 N 1021,9 20 0 0,0
21.04.2018 01:00:00 12,9 9,5 8,8 13,0 9,9 3 1 7 4 ZZO 1021,6 19 0 0,0
21.04.2018 00:00:00 14,0 9,6 9,5 13,0 9,9 0 0 8 4 N 1021,1 18 0 0,0
20.04.2018 23:00:00 14,7 9,7 10,2 13,0 9,9 4 2 7 4 ZZO 1020,9 20 0 0,0
20.04.2018 22:00:00 16,1 10,4 10,8 13,0 9,9 0 0 7 4 N 1020,4 41 0 0,0
20.04.2018 21:00:00 17,6 10,2 12,0 12,9 9,9 2 1 4 2 ZZO 1019,8 20 0 0,0
20.04.2018 20:00:00 20,6 11,2 15,0 12,8 9,9 0 0 7 4 N 1019,2 18 0 0,0
20.04.2018 19:00:00 25,9 8,8 21,0 12,6 9,9 6 3 9 5 WNW 1018,8 19 58 0,0
20.04.2018 18:00:00 26,7 10,0 24,9 12,5 9,9 5 3 9 5 NNO 1019,0 19 60 0,0
20.04.2018 17:00:00 26,5 9,8 26,9 12,3 9,8 6 3 9 5 N 1019,5 16 60 0,0
20.04.2018 16:00:00 25,3 10,0 28,7 12,1 9,8 7 4 13 7 N 1020,4 20 60 0,0
20.04.2018 15:00:00 24,4 8,8 28,5 12,0 9,9 8 4 15 8 N 1021,4 20 60 0,0
20.04.2018 14:00:00 22,2 9,4 29,2 11,9 9,8 10 5 13 7 N 1022,3 19 60 0,0
20.04.2018 13:00:00 21,2 11,5 29,6 11,9 9,8 8 5 12 6 N 1023,1 19 60 0,0
20.04.2018 12:00:00 21,7 7,9 26,3 11,8 9,8 5 3 9 5 N 1023,6 20 60 0,0
20.04.2018 11:00:00 19,8 7,8 19,7 11,9 9,8 3 1 8 4 ZZW 1024,3 17 60 0,0

tt = temperatuur
td = dauwpunt
tt 5cm = temperatuur 5cm
tt -20cm = temperatuur -20cm
tt -100cm = temperatuur -100cm
ff = windsnelheid
fx = windstoten
dd = windrichting
ppp = luchtdruk
vv = zicht
sd = Zonneschijnduur
rr = neerslag

Weerstations in de omgeving